Terminal Aerodrome Forecast
Issued by NWS Portland, OR

Home | Current Version | Previous Version | Text Only | Print | Product List | Glossary On
Versions: 1 2 3 4 5 6 7 8 9 10 11 12 13 14 15 16 17 18 19 20 21 22 23 24 25 26 27 28 29 30 31 32 33 34 35 36 37 38 39 40 41 42 43 44 45 46 47 48
153
FTUS46 KPQR 251721
TAFPDX
TAF
KPDX 251721Z 2518/2618 VRB04KT P6SM FEW017
     FM252000 31007KT P6SM SKC
     FM260400 32010KT P6SM SKC
     FM260700 32010KT P6SM OVC019
     FM261200 32005KT P6SM OVC015=

USA.gov is the U.S. government's official web portal to all federal, state and local government web resources and services.